{"data":{"norad_id":67119,"epoch":"2026-09-20T23:25:30.211968Z","epoch_age_seconds":37107,"freshness":"FRESH","line1":"1 67119U 25299T   26263.97604412  .00009092  00000+0  33936-3 0  9999","line2":"2 67119  43.0006 146.0418 0001289 275.4674  84.6031 15.27593478 42984","mean_motion":15.27593478,"eccentricity":0.0001289,"inclination_deg":43.0006,"raan_deg":146.0418,"arg_perigee_deg":275.4674,"mean_anomaly_deg":84.6031,"bstar":0.00033936,"rev_number":4298,"period_min":94.26591699549,"perigee_km":482.12433667003,"apogee_km":483.89314004137,"semimajor_km":6861.1457383557,"source":"CELESTRAK","updated_at":"2026-09-21T09:00:36.107130Z"}}